Waarnemingen

Advertentie
Mijn weer
Tarbes/Ossun, Frankrijk (7621): temperatuur & dauwpunt: 08.10.2019 23:00:00 - 14.10.2019 23:00:00 (CEST)Tarbes/Ossun, Frankrijk (7621): temperatuur 5cm: 08.10.2019 23:00:00 - 14.10.2019 23:00:00 (CEST)Tarbes/Ossun, Frankrijk (7621): temperatuur -20cm & temperatuur -100cm: 08.10.2019 23:00:00 - 14.10.2019 23:00:00 (CEST)Tarbes/Ossun, Frankrijk (7621): windsnelheid & windstoten: 08.10.2019 23:00:00 - 14.10.2019 23:00:00 (CEST)Tarbes/Ossun, Frankrijk (7621): windrichting: 08.10.2019 23:00:00 - 14.10.2019 23:00:00 (CEST)Tarbes/Ossun, Frankrijk (7621): luchtdruk: 08.10.2019 23:00:00 - 14.10.2019 23:00:00 (CEST)Tarbes/Ossun, Frankrijk (7621): zicht: 08.10.2019 23:00:00 - 14.10.2019 23:00:00 (CEST)Tarbes/Ossun, Frankrijk (7621): Zonneschijnduur: 08.10.2019 23:00:00 - 14.10.2019 23:00:00 (CEST)Tarbes/Ossun, Frankrijk (7621): neerslag: 08.10.2019 23:00:00 - 14.10.2019 23:00:00 (CEST)
Datum & Tijd tt [°C] td [°C] tt 5cm [°C] tt -20cm [°C] tt -100cm [°C] ff [km/u] ff [kn] fx [km/u] fx [kn] dd ppp [hPa] vv [km] sd [min] rr [mm]
14.10.2019 23:00:00 13,3 11,5 12,5 17,6 17,3 26 14 46 25 W 1011,8 51 0 0,0
14.10.2019 22:00:00 14,8 14,2 14,7 17,5 17,3 4 2 17 9 NNW 1010,1 27 0 0,0
14.10.2019 21:00:00 15,2 14,7 14,5 17,5 17,3 3 2 19 10 WNW 1009,5 26 0 0,2
14.10.2019 20:00:00 16,0 15,2 15,1 17,5 17,3 8 5 21 11 Z 1008,8 3,1 0 3,2
14.10.2019 19:00:00 17,2 14,7 15,8 17,5 17,3 15 8 43 23 NW 1009,0 30 0 3,3
14.10.2019 18:00:00 19,6 14,4 17,0 17,4 17,3 16 9 34 18 W 1007,8 14 0 0,0
14.10.2019 17:00:00 23,1 10,8 24,6 17,3 17,3 8 5 30 16 NNW 1005,5 54 2 0,0
14.10.2019 16:00:00 24,5 10,4 24,6 17,2 17,3 13 7 41 22 O 1004,8 46 49 0,0
14.10.2019 15:00:00 21,3 12,7 17,9 17,2 17,3 15 8 48 26 ZZO 1005,9 53 5 0,0
14.10.2019 14:00:00 20,6 13,8 17,3 17,2 17,3 24 13 42 23 ZZW 1009,1 15 0 0,2
14.10.2019 13:00:00 23,3 11,7 19,1 17,1 17,2 22 12 45 24 WZW 1008,3 47 1 0,2
14.10.2019 12:00:00 27,5 8,9 24,6 17,2 17,3 25 14 43 23 Z 1006,6 18 39 0,0
14.10.2019 11:00:00 26,0 9,3 15,1 17,3 17,3 21 11 41 22 ZZO 1006,3 19 12 0,0
14.10.2019 10:00:00 18,7 10,3 13,0 17,4 17,3 5 3 33 18 ZZW 1008,1 40 0 0,0
14.10.2019 09:00:00 17,2 9,1 9,7 17,5 17,3 12 7 26 14 ZO 1007,7 40 20 0,0
14.10.2019 08:00:00 13,8 8,8 8,9 17,6 17,3 11 6 22 12 ZO 1008,5 45 0 0,0
14.10.2019 07:00:00 14,0 9,0 8,4 17,7 17,3 7 4 29 16 Z 1008,8 45 0 0,0
14.10.2019 06:00:00 11,3 9,2 8,0 17,8 17,3 6 3 16 9 ZZW 1010,2 42 0 0,0
14.10.2019 05:00:00 11,3 9,0 7,8 17,9 17,3 7 4 12 6 ZZW 1010,7 35 0 0,0
14.10.2019 04:00:00 13,0 10,2 8,2 18,0 17,3 4 2 20 11 ZO 1011,3 34 0 0,0
14.10.2019 03:00:00 12,5 11,6 9,6 18,1 17,3 10 5 21 11 NNW 1011,7 23 0 0,0
14.10.2019 02:00:00 14,7 12,7 9,6 18,2 17,3 10 6 20 11 ZO 1011,1 26 0 0,0
14.10.2019 01:00:00 13,4 11,1 10,2 18,3 17,3 4 2 18 10 N 1011,3 26 0 0,0
14.10.2019 00:00:00 14,7 13,4 11,0 18,3 17,3 6 3 22 12 Z 1011,8 28 0 0,0
13.10.2019 23:00:00 16,0 13,5 11,5 18,3 17,3 5 3 12 7 OZO 1012,2 33 0 0,0
13.10.2019 22:00:00 16,3 12,6 12,2 18,3 17,3 4 2 10 6 Z 1012,3 37 0 0,0
13.10.2019 21:00:00 17,5 13,0 13,4 18,2 17,3 7 4 13 7 Z 1011,9 35 0 0,0
13.10.2019 20:00:00 20,4 14,7 15,3 18,1 17,3 7 4 17 9 ZW 1011,6 19 0 0,0
13.10.2019 19:00:00 25,8 13,0 20,8 17,9 17,3 8 4 20 11 NO 1010,6 47 43 0,0
13.10.2019 18:00:00 28,7 14,1 29,2 17,7 17,3 16 8 25 13 NNW 1010,2 25 52 0,0
13.10.2019 17:00:00 30,2 11,2 36,3 17,5 17,3 9 5 22 12 NNW 1009,8 46 60 0,0
13.10.2019 16:00:00 31,1 8,7 42,5 17,3 17,3 10 5 21 11 Z 1009,6 46 60 0,0
13.10.2019 15:00:00 31,2 8,8 42,9 17,1 17,3 10 6 21 11 ZZW 1009,7 36 60 0,0
13.10.2019 14:00:00 31,0 9,8 40,1 17,0 17,3 11 6 21 11 Z 1010,1 20 60 0,0
13.10.2019 13:00:00 30,3 11,3 31,6 16,9 17,3 6 4 13 7 ZO 1010,7 30 60 0,0
13.10.2019 12:00:00 28,9 11,0 23,9 16,9 17,3 5 3 14 8 WZW 1010,9 19 60 0,0
13.10.2019 11:00:00 25,5 12,0 18,1 17,0 17,3 4 2 14 8 NO 1011,0 48 60 0,0
13.10.2019 10:00:00 21,8 11,8 14,0 17,0 17,3 13 7 26 14 ZO 1011,1 11 60 0,0
13.10.2019 09:00:00 18,5 11,3 11,1 17,1 17,3 16 8 22 12 ZZO 1011,5 9 24 0,0
13.10.2019 08:00:00 15,5 11,3 10,8 17,1 17,3 8 4 14 8 ZZO 1011,7 46 0 0,0
13.10.2019 07:00:00 15,5 12,1 11,8 17,2 17,3 3 2 14 7 ZZO 1012,0 49 0 0,0
13.10.2019 06:00:00 18,7 11,5 12,1 17,2 17,3 6 3 18 10 ZZO 1011,6 60 0 0,0
13.10.2019 05:00:00 18,2 12,0 13,6 17,2 17,3 7 4 36 20 NNW 1011,8 60 0 0,0
13.10.2019 04:00:00 17,9 13,4 14,5 17,2 17,3 16 9 24 13 ZZW 1011,8 53 0 0,0
13.10.2019 03:00:00 22,5 12,1 15,9 17,3 17,3 13 7 39 21 ZZO 1012,0 36 0 0,2
13.10.2019 02:00:00 22,6 11,3 14,5 17,3 17,3 21 12 30 16 Z 1011,8 46 0 0,0
13.10.2019 01:00:00 18,4 12,6 13,2 17,3 17,3 14 7 22 12 OZO 1012,7 37 0 0,0
13.10.2019 00:00:00 16,4 14,4 13,2 17,4 17,4 4 2 12 6 ZO 1013,3 23 0 0,0
12.10.2019 23:00:00 15,9 14,8 13,8 17,4 17,4 10 6 13 7 Z 1013,3 12 0 0,0
12.10.2019 22:00:00 17,0 16,2 14,4 17,4 17,4 3 2 11 6 ZO 1013,2 17 0 0,0
12.10.2019 21:00:00 17,0 15,5 14,2 17,3 17,4 3 2 7 4 NNW 1013,4 19 0 0,0
12.10.2019 20:00:00 18,5 14,8 15,4 17,2 17,3 4 2 13 7 N 1013,0 18 0 0,0
12.10.2019 19:00:00 21,8 16,1 19,3 17,1 17,3 8 4 18 10 N 1012,5 21 0 0,0
12.10.2019 18:00:00 24,8 16,2 25,8 17,0 17,4 7 4 17 9 NNO 1012,2 25 33 0,0
12.10.2019 17:00:00 26,1 16,4 32,0 16,9 17,3 9 5 18 10 NO 1012,2 28 54 0,0
12.10.2019 16:00:00 24,3 15,5 25,9 16,8 17,3 5 3 8 4 N 1013,0 18 1 0,0
12.10.2019 15:00:00 22,8 14,9 24,3 16,8 17,4 2 1 14 8 ZW 1013,5 13 0 0,0
12.10.2019 14:00:00 22,2 15,3 22,4 16,7 17,4 8 4 11 6 NNO 1013,9 35 0 0,0
12.10.2019 13:00:00 21,6 14,0 19,5 16,7 17,4 10 5 15 8 ZO 1014,5 43 0 0,0
12.10.2019 12:00:00 19,5 14,9 18,1 16,8 17,4 9 5 15 8 Z 1015,1 31 0 0,0
12.10.2019 11:00:00 18,9 14,4 16,9 16,7 17,4 7 4 18 10 ZZO 1015,1 20 0 0,0
12.10.2019 10:00:00 18,7 13,3 15,5 16,8 17,4 10 6 21 12 Z 1014,3 42 0 0,0
12.10.2019 09:00:00 16,8 13,7 13,8 16,8 17,4 13 7 18 10 ZO 1014,1 37 0 0,0
12.10.2019 08:00:00 15,5 13,3 13,6 16,9 17,4 3 2 15 8 ZZO 1013,9 33 0 0,0
12.10.2019 07:00:00 16,2 13,1 14,3 16,9 17,4 5 3 16 9 N 1013,3 43 0 0,0
12.10.2019 06:00:00 17,2 13,1 14,2 17,0 17,4 9 5 18 10 Z 1013,1 53 0 0,0
12.10.2019 05:00:00 16,2 12,7 13,0 17,0 17,4 11 6 18 10 ZZO 1013,8 52 0 0,0
12.10.2019 04:00:00 14,6 12,3 10,7 17,1 17,4 7 4 10 5 ZZO 1014,2 46 0 0,0
12.10.2019 03:00:00 14,1 11,8 10,0 17,2 17,4 5 3 10 6 OZO 1014,6 43 0 0,0
12.10.2019 02:00:00 13,8 11,7 9,8 17,2 17,4 4 2 14 8 ZO 1014,9 53 0 0,0
12.10.2019 01:00:00 16,3 11,9 11,1 17,2 17,4 11 6 17 9 ZZO 1014,9 55 0 0,0
12.10.2019 00:00:00 16,1 12,1 11,5 17,3 17,4 11 6 16 8 Z 1015,2 55 0 0,0
11.10.2019 23:00:00 15,4 12,0 11,4 17,3 17,4 9 5 12 6 Z 1015,7 49 0 0,0
11.10.2019 22:00:00 16,5 12,8 11,7 17,2 17,4 8 4 11 6 ZZO 1015,4 54 0 0,0
11.10.2019 21:00:00 17,1 13,0 11,7 17,2 17,5 4 2 15 8 ZZW 1015,6 55 0 0,0
11.10.2019 20:00:00 18,8 13,4 14,4 17,0 17,5 11 6 15 8 Z 1015,5 51 1 0,0
11.10.2019 19:00:00 24,8 13,0 19,8 16,8 17,4 6 3 11 6 WZW 1014,8 58 60 0,0
11.10.2019 18:00:00 28,1 9,9 28,1 16,6 17,5 5 3 13 7 O 1014,3 19 60 0,0
11.10.2019 17:00:00 28,9 9,6 37,9 16,3 17,4 5 3 14 7 ZZO 1014,4 43 60 0,0
11.10.2019 16:00:00 29,6 6,9 42,8 16,1 17,4 4 2 18 10 ZW 1014,7 42 60 0,0
11.10.2019 15:00:00 28,3 6,4 42,0 15,9 17,4 5 3 16 9 ONO 1015,4 40 60 0,0
11.10.2019 14:00:00 27,3 8,7 36,4 15,8 17,5 8 4 15 8 NNO 1016,1 25 60 0,0
11.10.2019 13:00:00 26,6 10,3 26,1 15,7 17,5 4 2 13 7 N 1016,7 20 60 0,0
11.10.2019 12:00:00 24,1 11,4 18,5 15,7 17,4 4 2 8 4 O 1017,3 39 60 0,0
11.10.2019 11:00:00 20,5 10,3 13,2 15,8 17,5 2 1 9 5 Z 1017,8 47 60 0,0
11.10.2019 10:00:00 14,0 10,8 8,2 16,0 17,5 3 2 14 8 ZZO 1018,3 33 60 0,0
11.10.2019 09:00:00 9,1 8,2 4,5 16,1 17,5 6 3 16 9 Z 1018,8 37 31 0,0
11.10.2019 08:00:00 6,6 5,7 4,2 16,2 17,5 6 4 9 5 ZZO 1019,3 39 0 0,0
11.10.2019 07:00:00 7,1 6,4 4,4 16,3 17,5 6 4 14 7 Z 1019,5 43 0 0,0
11.10.2019 06:00:00 7,5 7,5 3,9 16,4 17,5 9 5 12 7 ZO 1019,8 45 0 0,0
11.10.2019 05:00:00 6,7 6,4 4,1 16,5 17,5 4 2 9 5 Z 1020,5 46 0 0,0
11.10.2019 04:00:00 6,5 6,2 4,0 16,7 17,5 7 4 9 5 ZZW 1021,4 49 0 0,0
11.10.2019 03:00:00 7,7 7,6 4,6 16,8 17,5 3 1 9 5 ZZW 1021,8 46 0 0,0
11.10.2019 02:00:00 6,7 6,1 3,8 16,9 17,5 6 3 7 4 Z 1022,4 53 0 0,0
11.10.2019 01:00:00 8,3 7,2 4,8 17,0 17,5 0 0 8 4 N 1022,5 14 0 0,0
11.10.2019 00:00:00 9,4 8,5 5,4 17,1 17,5 4 2 10 6 ZZO 1022,6 51 0 0,0
10.10.2019 23:00:00 8,6 7,2 6,4 17,1 17,5 9 5 10 5 Z 1023,1 50 0 0,0
10.10.2019 22:00:00 10,0 9,1 7,2 17,1 17,5 6 3 7 4 Z 1023,0 44 0 0,0
10.10.2019 21:00:00 10,7 8,6 8,2 17,1 17,5 6 4 10 6 Z 1022,9 50 0 0,0
10.10.2019 20:00:00 13,8 9,6 9,6 17,0 17,5 6 3 11 6 ZW 1022,3 51 4 0,0
10.10.2019 19:00:00 18,2 8,5 15,6 16,9 17,5 5 3 17 9 ONO 1021,4 59 60 0,0
10.10.2019 18:00:00 19,6 8,6 22,7 16,7 17,5 7 4 18 10 ONO 1021,3 29 60 0,0
10.10.2019 17:00:00 20,6 8,6 32,9 16,5 17,5 4 2 22 12 OZO 1021,5 43 60 0,0
10.10.2019 16:00:00 19,8 8,5 36,3 16,3 17,5 10 6 23 12 ONO 1021,9 41 60 0,0
10.10.2019 15:00:00 19,7 9,6 25,8 16,2 17,5 8 4 20 11 NNO 1022,2 60 49 0,0
10.10.2019 14:00:00 19,4 9,0 29,4 16,1 17,6 10 6 19 10 N 1022,9 40 60 0,0
10.10.2019 13:00:00 19,0 9,2 21,1 16,0 17,5 5 3 13 7 ZW 1023,5 20 60 0,0
10.10.2019 12:00:00 17,9 9,5 16,6 16,0 17,5 4 2 15 8 ZZO 1024,1 33 60 0,0
10.10.2019 11:00:00 16,1 10,4 13,2 16,1 17,6 0 0 12 7 N 1024,5 42 60 0,0
10.10.2019 10:00:00 13,5 10,5 9,5 16,2 17,6 8 5 13 7 ZZO 1024,8 60 60 0,0
10.10.2019 09:00:00 10,3 9,2 8,7 16,2 17,5 11 6 18 10 Z 1024,8 28 13 0,0
10.10.2019 08:00:00 10,3 9,2 10,0 16,4 17,6 9 5 14 7 ZZO 1024,6 48 0 0,0
10.10.2019 07:00:00 10,0 9,1 8,3 16,5 17,6 7 4 14 8 ZZO 1024,3 60 0 0,0
10.10.2019 06:00:00 8,9 8,6 5,5 16,6 17,6 8 5 14 7 Z 1024,2 60 0 0,0
10.10.2019 05:00:00 8,9 8,0 6,8 16,7 17,6 9 5 16 9 Z 1023,9 52 0 0,0
10.10.2019 04:00:00 9,5 9,0 6,7 16,8 17,6 10 6 16 9 ZO 1023,8 48 0 0,0
10.10.2019 03:00:00 8,9 8,3 7,3 16,9 17,6 11 6 15 8 Z 1023,9 41 0 0,0
10.10.2019 02:00:00 9,0 8,7 6,7 17,0 17,6 12 6 16 9 Z 1024,1 33 0 0,0
10.10.2019 01:00:00 9,2 8,7 6,2 17,1 17,6 9 5 13 7 Z 1024,2 33 0 0,0
10.10.2019 00:00:00 10,5 9,3 7,8 17,2 17,6 9 5 14 7 Z 1023,9 37 0 0,0
09.10.2019 23:00:00 12,4 10,5 8,7 17,2 17,6 10 5 23 13 Z 1023,6 44 0 0,0
09.10.2019 22:00:00 11,8 10,4 8,5 17,3 17,6 6 3 15 8 Z 1023,8 41 0 0,0
09.10.2019 21:00:00 12,1 10,5 8,5 17,3 17,6 4 2 12 7 Z 1023,9 45 0 0,0
09.10.2019 20:00:00 13,4 11,1 12,0 17,3 17,6 10 5 19 11 ZW 1023,1 55 0 0,0
09.10.2019 19:00:00 13,2 10,9 12,7 17,3 17,6 13 7 34 18 ZW 1022,7 51 0 0,0
09.10.2019 18:00:00 14,0 13,0 13,9 17,3 17,6 14 8 29 16 WZW 1022,6 5 0 0,2
09.10.2019 17:00:00 14,7 12,7 15,5 17,3 17,6 16 8 27 15 WZW 1022,1 56 0 0,0
09.10.2019 16:00:00 13,9 12,9 14,6 17,3 17,6 13 7 34 18 W 1022,4 7 0 0,2
09.10.2019 15:00:00 15,8 11,2 16,9 17,3 17,6 17 9 29 16 WZW 1021,6 57 0 0,0
09.10.2019 14:00:00 15,5 10,9 17,1 17,3 17,6 16 8 27 15 WZW 1022,0 52 0 0,0
09.10.2019 13:00:00 15,1 12,4 15,2 17,3 17,6 16 8 24 13 ZW 1022,2 46 0 0,0
09.10.2019 12:00:00 13,8 12,2 15,2 17,3 17,6 14 8 23 12 W 1022,5 20 0 0,0
09.10.2019 11:00:00 13,8 13,3 14,5 17,4 17,6 12 7 25 14 WNW 1022,2 5 0 0,0
09.10.2019 10:00:00 13,7 13,4 14,2 17,4 17,6 10 6 19 10 W 1021,4 5 0 0,2
09.10.2019 09:00:00 13,4 12,9 13,6 17,5 17,6 5 3 9 5 W 1020,8 3,0 0 0,2
09.10.2019 08:00:00 13,5 13,0 13,3 17,5 17,6 5 3 18 10 Z 1020,6 1,2 0 0,0
09.10.2019 07:00:00 13,6 12,7 13,3 17,5 17,6 9 5 16 9 WZW 1020,6 4,5 0 0,0
09.10.2019 06:00:00 13,6 13,3 13,5 17,6 17,6 5 3 9 5 ZZW 1019,4 26 0 0,0
09.10.2019 05:00:00 13,4 13,1 13,4 17,7 17,7 6 4 9 5 WZW 1018,5 9 0 0,0
09.10.2019 04:00:00 13,4 13,1 13,6 17,7 17,6 5 3 16 8 NW 1019,2 8 0 0,0
09.10.2019 03:00:00 14,1 13,8 14,1 17,8 17,7 8 4 24 13 WNW 1019,7 7 0 0,4
09.10.2019 02:00:00 15,5 14,7 15,2 17,8 17,6 14 7 21 12 WNW 1019,2 1,6 0 0,4
09.10.2019 01:00:00 17,0 14,3 15,9 17,8 17,6 13 7 27 15 WZW 1019,0 38 0 0,0
09.10.2019 00:00:00 17,5 13,8 11,9 17,9 17,7 16 8 26 14 W 1019,0 19 0 0,0
08.10.2019 23:00:00 14,5 12,0 11,5 17,9 17,7 8 5 13 7 WZW 1019,3 11 0 0,0

tt = temperatuur
td = dauwpunt
tt 5cm = temperatuur 5cm
tt -20cm = temperatuur -20cm
tt -100cm = temperatuur -100cm
ff = windsnelheid
fx = windstoten
dd = windrichting
ppp = luchtdruk
vv = zicht
sd = Zonneschijnduur
rr = neerslag

Weerstations in de omgeving